GEFSSE_con_prob3kmehi_174.txt.gz
EHI
3 1 1 0 0 0 0 0 0 0 0 0 0 0 0 0 0 0 0 0 0 0 0 0 0 0 0 0 1 0 1 2 2 1 0 0 0 0 0 0 0 0 0
3 2 1 1 0 0 0 0 0 0 0 0 0 0 0 0 0 0 0 0 0 0 0 0 0 0 0 0 1 0 1 1 1 0 0 0 0 0 0 0 0 0 0
3 3 2 1 0 0 0 0 0 0 0 0 0 0 0 0 0 0 0 0 0 0 0 0 0 0 0 0 0 0 0 0 0 0 0 0 0 0 0 0 0 0 0
6 5 4 2 1 0 0 0 0 0 0 0 0 0 0 0 0 0 0 0 0 0 0 0 0 0 0 0 0 0 0 0 0 0 0 0 0 0 0 0 0 0 0
11 11 7 3 1 0 0 0 0 0 0 0 0 0 0 0 0 0 0 0 0 0 0 0 0 0 0 0 0 0 0 0 0 0 0 0 0 0 0 0 0 0 0
14 12 9 5 2 0 0 0 0 0 0 0 0 0 0 0 0 0 0 0 0 0 0 0 0 0 0 0 0 0 0 0 1 0 1 1 1 0 1 1 1 1 1
14 12 9 7 4 1 0 1 1 1 0 0 0 0 0 0 0 0 0 0 0 0 0 0 0 0 0 0 0 0 1 1 1 0 1 1 1 0 1 2 2 2 2
16 12 8 7 5 2 1 2 2 1 1 1 1 0 0 0 0 0 0 0 0 0 0 0 0 0 0 0 0 1 2 2 1 0 1 1 1 0 1 2 2 3 3
15 11 5 4 5 4 3 3 3 3 3 2 1 0 0 0 0 0 0 1 0 0 0 0 1 0 0 0 0 2 3 2 1 1 2 3 2 1 0 1 1 2 1
11 9 6 5 6 5 4 4 3 3 3 3 2 1 1 1 1 1 1 1 0 0 0 0 0 0 0 0 1 2 2 2 1 2 3 5 5 2 1 0 0 0 0
9 9 9 10 9 7 5 5 4 4 4 4 3 3 2 3 3 2 2 2 1 0 0 0 0 0 0 1 2 3 3 2 2 3 4 6 7 4 2 1 0 0 0
9 11 12 13 13 10 7 6 5 6 6 5 5 4 3 3 3 3 4 3 2 0 0 1 1 1 0 1 2 4 4 2 1 2 3 6 7 5 3 2 1 1 1
12 12 13 14 14 13 10 7 5 6 6 5 6 5 3 2 2 3 4 3 2 1 1 2 3 2 0 0 2 4 3 1 1 2 4 8 9 6 4 3 1 1 0
17 17 17 18 18 18 15 10 6 5 5 6 7 6 4 3 1 2 3 3 2 1 2 2 2 1 0 0 1 1 1 0 1 3 6 10 12 9 6 4 2 1 1
28 27 27 27 26 22 19 14 8 6 7 9 8 7 5 4 3 2 3 3 2 2 3 2 1 0 1 1 1 1 1 1 2 3 8 12 13 12 8 6 4 2 1
37 37 36 34 29 23 18 15 11 8 9 10 10 8 7 6 5 4 4 4 3 3 4 3 1 1 1 1 2 2 2 3 4 6 9 11 13 13 11 10 9 6 4
46 44 40 36 31 23 17 14 12 9 9 11 12 10 9 8 7 5 4 4 5 4 4 3 2 2 2 1 2 2 2 5 8 10 10 11 13 14 14 14 14 12 11
56 51 42 37 34 27 19 15 13 11 12 14 15 14 13 11 9 7 4 4 5 5 4 4 3 3 2 1 2 2 4 8 11 12 11 12 15 16 16 16 17 16 15
67 60 49 43 40 33 25 19 16 15 15 17 19 20 16 11 9 7 6 4 3 4 5 3 2 2 2 1 2 3 6 11 13 12 12 14 17 21 20 18 19 18 15
76 71 61 52 44 37 31 25 21 17 18 20 24 24 17 9 6 8 9 6 4 4 4 3 1 1 2 2 2 2 4 10 15 15 14 14 17 21 23 23 22 19 17
84 81 72 60 50 41 35 31 26 22 22 24 28 27 18 9 6 9 10 9 6 5 6 5 3 2 2 3 2 1 2 6 12 16 16 15 15 17 21 26 27 24 21
88 86 77 67 57 48 40 35 29 26 25 25 30 30 22 12 8 8 10 10 9 8 10 9 6 4 4 4 3 2 1 2 5 8 11 13 14 15 17 23 29 30 29
87 85 80 73 63 53 46 38 31 27 25 27 34 37 30 20 14 11 12 13 12 11 12 11 9 8 6 5 5 3 2 1 1 2 4 7 12 15 15 16 23 30 33
80 84 83 78 68 57 48 40 33 30 28 31 40 42 36 27 20 18 18 18 17 14 12 10 10 11 9 8 7 6 3 2 1 0 1 3 7 11 12 11 13 21 29
74 80 83 80 73 62 52 42 36 33 32 34 40 40 36 30 25 23 24 23 20 16 13 11 11 12 11 10 11 9 6 5 4 1 0 1 2 5 8 7 7 12 18
69 76 82 81 75 66 55 44 39 37 35 35 38 37 33 30 28 26 27 26 22 18 15 13 12 11 11 12 13 12 9 7 6 3 1 0 0 2 4 5 6 8 12

GEFSSE_con_prob3kmehi_180.txt.gz
EHI
0 1 4 5 5 5 2 1 0 0 1 2 3 4 4 5 4 2 0 0 0 0 0 1 1 1 0 0 0 0 0 0 0 0 1 2 3 2 1 1 0 0 0
1 3 5 6 7 6 4 1 0 0 0 1 2 3 3 3 3 2 0 0 0 0 0 0 0 0 0 0 0 0 0 0 0 0 1 2 2 2 1 0 0 0 0
3 4 5 6 7 6 4 1 0 0 0 0 1 1 2 2 1 1 0 0 0 0 0 0 0 0 0 0 0 0 0 0 0 0 0 1 1 1 0 0 0 0 0
4 3 4 6 7 6 3 1 0 0 0 0 0 1 2 2 1 0 0 0 0 0 0 0 0 0 0 0 0 0 0 0 0 0 0 0 0 0 0 1 1 0 0
3 3 4 6 6 5 4 2 1 0 0 0 0 1 2 2 1 0 0 0 0 0 0 0 0 0 0 0 0 0 0 0 0 0 0 0 0 0 0 1 1 1 0
3 3 5 7 6 4 3 3 2 1 0 0 0 0 1 1 0 0 0 0 0 0 0 0 0 0 0 0 0 0 0 0 0 0 0 0 0 0 0 1 2 1 0
3 3 5 7 6 4 3 3 3 2 0 0 0 0 0 0 0 0 0 0 0 0 0 0 0 0 0 0 0 0 1 0 0 0 0 0 0 0 0 1 2 2 1
3 2 3 5 6 5 4 3 3 1 1 1 1 0 0 0 0 0 0 0 0 0 0 0 0 0 0 0 0 0 0 0 0 0 0 0 0 1 1 2 2 2 1
2 1 1 2 3 4 4 3 3 2 2 2 2 1 1 1 0 0 0 0 0 0 0 0 0 0 0 0 0 0 0 0 0 0 0 0 0 1 2 2 2 1 0
3 1 0 0 0 2 3 3 3 2 2 3 3 3 3 2 0 0 0 0 0 0 0 0 0 0 0 0 0 0 0 0 0 0 0 1 2 2 1 2 1 0 0
4 3 1 0 0 1 2 3 3 2 1 2 3 4 3 1 0 0 0 0 0 0 0 0 0 0 0 0 0 0 0 0 0 0 0 2 4 4 3 2 1 0 0
8 5 1 0 0 1 2 2 2 1 0 1 1 1 1 0 0 0 0 0 0 0 0 0 0 0 0 0 0 0 1 1 0 0 0 3 6 6 4 3 2 1 0
14 10 4 2 1 0 1 1 1 0 0 0 0 0 0 0 0 1 0 0 0 0 0 0 0 0 0 0 0 0 1 1 0 0 1 4 8 7 6 5 4 2 1
23 18 10 5 2 1 1 0 0 0 0 0 0 0 0 0 0 0 0 0 0 0 0 0 0 0 0 0 0 0 1 1 0 0 2 7 11 11 9 8 7 4 2
31 25 17 10 6 4 3 2 1 0 0 0 1 1 1 0 0 0 0 0 0 0 0 0 0 0 0 0 0 0 0 0 0 0 2 8 14 16 14 12 10 7 4
33 28 22 17 14 10 5 3 2 1 1 1 1 2 1 0 0 0 0 0 0 0 0 0 0 0 0 0 0 0 0 0 0 0 1 5 12 17 18 17 13 11 10
35 30 25 23 19 12 6 2 3 2 2 1 1 1 1 1 0 0 0 0 0 0 0 0 0 0 0 0 0 0 0 0 0 0 0 2 6 11 16 17 16 15 16
37 33 28 25 19 12 6 3 3 4 3 4 3 2 2 2 1 0 0 0 0 0 0 0 0 0 0 0 0 0 0 0 1 0 0 1 2 6 10 15 16 17 17
39 35 32 27 19 12 8 6 5 5 7 7 6 4 4 4 3 2 1 1 0 0 0 0 0 0 0 0 0 0 0 0 0 0 0 0 1 2 5 9 13 15 16
40 38 35 30 22 15 10 7 5 7 8 7 5 4 4 5 4 4 3 2 1 0 0 0 0 0 0 0 0 0 0 0 0 0 0 0 0 0 1 3 5 8 10
47 43 39 34 26 18 12 8 6 6 7 6 4 3 3 5 5 4 3 2 1 0 0 0 0 0 0 0 0 0 0 0 0 0 0 0 0 0 0 0 1 2 3
59 53 46 40 30 21 15 12 10 7 5 4 4 2 3 5 4 3 1 1 0 0 0 0 0 0 0 0 0 0 0 0 0 0 0 0 0 0 0 1 1 0 0
68 64 56 47 36 25 18 17 17 14 8 4 3 2 3 4 3 1 0 0 0 0 0 0 0 0 0 0 0 0 0 0 0 0 0 0 0 0 1 2 1 0 0
73 70 62 53 43 31 23 22 23 21 14 6 3 3 3 3 2 1 0 0 0 0 0 0 0 0 0 1 1 1 0 0 0 0 0 0 0 0 1 1 1 0 0
76 72 64 55 47 36 28 24 25 24 18 10 5 4 3 3 1 1 1 0 0 0 0 1 1 0 0 1 2 1 0 0 0 0 0 0 0 0 0 0 0 0 0
77 74 65 57 49 40 31 25 25 25 20 13 8 5 4 2 1 2 2 1 0 0 1 1 1 0 0 1 1 1 0 0 0 0 0 0 0 0 0 0 0 0 0

GEFSSE_con_prob3kmehi_186.txt.gz
EHI
0 0 0 0 0 1 1 2 3 4 3 2 1 0 0 0 0 0 0 0 0 1 2 2 1 0 0 0 0 0 0 0 0 0 0 0 0 0 0 0 0 0 0
0 0 0 1 1 2 2 2 2 1 2 2 1 0 0 0 0 0 0 0 0 0 1 1 0 0 0 0 0 0 0 0 0 0 0 0 0 0 0 0 0 0 0
1 1 2 4 4 4 3 1 0 0 1 2 2 1 0 0 0 0 0 0 0 0 0 0 0 0 0 0 0 0 0 0 0 0 0 0 0 0 0 0 0 0 0
2 1 3 6 7 5 3 1 0 0 1 3 3 1 1 1 1 0 0 1 0 0 0 0 0 0 0 0 0 0 0 0 0 0 0 0 0 0 0 0 0 0 0
1 1 3 6 7 6 4 1 0 0 2 3 3 2 2 2 2 1 0 0 0 0 0 0 0 0 0 0 0 0 0 0 0 0 0 0 0 0 0 0 0 0 0
0 0 2 5 6 5 3 2 1 1 2 4 3 2 1 2 2 1 0 0 0 0 0 0 0 0 0 0 0 0 0 0 0 0 0 0 0 0 0 0 0 0 0
1 0 1 4 5 4 3 3 2 3 4 5 4 1 0 1 1 0 0 0 0 0 0 0 0 0 0 0 0 0 0 0 0 0 0 0 0 0 0 0 0 0 0
1 0 1 3 3 3 3 3 3 4 5 4 3 1 0 0 0 0 0 0 0 0 0 0 0 0 0 0 0 0 0 0 0 0 0 0 0 0 0 0 0 0 0
1 0 0 1 1 2 3 3 3 3 4 3 2 1 1 0 0 0 0 0 0 0 0 0 0 0 0 0 0 0 0 0 0 0 0 0 0 0 0 0 0 0 0
1 0 0 0 0 1 1 2 2 2 2 2 1 1 0 0 0 0 0 0 0 0 0 0 0 0 0 0 0 0 0 0 0 0 0 0 0 0 0 0 0 0 0
3 1 0 0 0 0 0 1 1 1 1 1 1 0 0 0 0 0 0 0 0 0 0 0 0 0 0 0 0 0 0 0 0 0 0 0 0 0 0 0 0 0 0
6 3 1 0 0 0 0 0 0 0 0 0 0 0 0 0 0 0 0 0 0 0 0 0 0 0 0 0 0 0 0 0 0 0 0 0 0 0 0 0 1 0 0
5 3 1 0 0 0 0 0 0 0 0 0 0 0 0 0 0 0 0 0 0 0 0 0 0 0 0 0 0 0 0 0 0 0 0 0 0 0 0 1 2 1 0
4 3 1 0 0 0 0 0 0 0 0 0 0 0 0 0 0 0 0 0 0 0 0 0 0 0 0 0 0 0 0 0 0 0 0 0 0 0 0 0 1 1 1
3 2 1 0 0 0 0 0 0 0 0 0 0 0 0 0 0 0 0 0 0 0 0 0 0 0 0 0 0 0 0 0 0 0 0 0 0 0 1 1 1 1 0
2 1 0 0 0 0 0 0 0 0 0 0 0 0 0 0 0 0 0 0 0 0 0 0 0 0 0 0 0 0 0 0 0 0 0 0 0 0 1 2 1 0 0
2 1 1 1 0 0 0 0 0 0 0 0 0 0 0 0 0 0 0 0 0 0 0 0 0 0 0 0 0 0 0 0 0 0 0 0 0 0 1 1 1 0 0
4 3 1 1 0 0 0 1 1 1 1 1 0 0 0 1 1 0 0 0 1 1 0 0 0 0 0 0 0 0 0 0 0 0 0 0 0 0 1 1 1 0 0
10 6 3 2 1 0 1 3 3 4 4 2 0 0 1 2 2 1 1 1 2 1 0 0 0 0 0 0 0 0 0 0 0 0 0 0 0 0 1 1 2 1 0
13 11 8 5 2 2 4 6 6 6 5 2 0 0 1 3 3 2 1 1 1 1 0 0 0 0 0 0 0 0 0 0 0 0 0 0 0 0 0 1 2 1 1
16 17 15 9 3 3 6 8 8 7 4 1 0 0 0 1 2 2 1 0 0 0 0 0 0 0 0 0 0 0 0 0 0 0 0 0 0 0 0 0 1 1 0
22 22 19 11 4 3 6 8 7 5 2 0 0 0 0 0 1 1 0 0 0 0 0 0 0 0 0 0 0 0 0 0 0 0 0 0 0 0 0 0 0 0 0
25 24 21 14 6 4 7 9 8 4 2 1 0 0 0 0 0 0 0 0 0 0 0 0 0 0 0 0 0 0 0 0 0 0 0 0 0 0 0 0 0 0 0
25 23 22 17 10 7 10 13 11 6 3 1 0 0 0 0 0 0 0 0 0 0 0 0 0 0 0 0 0 0 0 0 0 0 0 0 0 0 0 0 0 0 0
24 23 24 21 15 12 13 15 12 8 5 3 1 0 0 0 0 0 0 0 0 0 0 0 0 1 0 0 0 0 0 0 0 0 0 0 0 0 0 0 0 0 0
23 24 25 23 18 15 14 14 12 9 7 4 2 1 0 0 0 0 0 0 0 0 0 0 0 1 0 0 0 0 0 0 0 0 0 0 0 0 0 0 0 0 0

GEFSSE_con_prob3kmehi_192.txt.gz
EHI
0 0 0 0 0 0 0 0 0 0 1 2 2 2 1 0 0 0 0 0 1 1 1 0 0 1 2 2 1 1 0 0 0 0 0 0 0 0 0 0 0 0 0
0 0 0 0 0 0 0 0 0 0 0 1 1 1 0 0 0 0 0 0 1 1 0 0 0 0 1 1 1 1 0 0 0 0 0 0 0 0 0 0 0 0 0
0 0 0 0 0 0 0 0 0 0 0 0 0 0 0 0 0 0 0 0 0 0 0 0 0 0 1 1 1 0 0 0 0 0 0 0 0 0 0 0 0 0 0
0 0 0 1 0 0 0 0 0 0 0 0 0 0 0 0 0 0 0 0 0 0 0 0 0 0 1 1 0 0 0 0 0 0 0 0 0 0 0 0 0 0 0
0 0 0 0 0 0 0 0 0 0 0 0 0 0 0 0 0 0 0 0 0 0 0 0 0 0 0 0 0 0 0 0 0 0 0 0 0 0 0 0 0 0 0
0 0 0 1 1 0 0 0 0 0 0 0 0 0 0 0 0 0 0 0 0 0 0 0 0 0 0 0 0 0 0 0 0 0 0 0 0 0 0 0 0 0 0
0 0 1 2 2 1 0 0 0 0 0 1 1 1 0 0 0 0 0 0 0 0 0 0 0 0 0 0 0 0 0 0 0 0 0 0 0 0 0 0 0 0 0
0 0 2 3 3 1 0 0 0 0 1 2 2 1 0 0 0 0 0 0 0 0 0 0 0 0 0 0 0 0 0 0 0 0 0 0 0 0 0 0 0 0 0
0 0 1 2 2 2 1 1 1 0 1 2 2 1 0 0 0 0 0 0 0 0 0 0 0 0 0 0 0 0 0 0 0 0 0 0 0 0 0 0 0 0 0
1 0 0 0 1 1 1 2 1 0 0 1 1 1 0 0 0 0 0 0 0 0 0 0 0 0 0 0 0 0 0 0 0 0 0 0 0 0 0 0 0 0 0
2 1 0 0 0 0 1 1 1 0 0 0 0 0 0 0 0 0 0 0 0 0 0 0 0 0 0 0 0 0 0 0 0 0 0 1 0 0 0 0 0 0 0
3 2 1 0 0 0 0 0 0 0 0 0 0 0 0 0 0 0 0 0 0 0 0 0 0 0 0 0 0 0 0 0 0 0 1 2 1 0 0 0 0 0 0
3 2 1 0 0 0 0 0 0 0 0 0 0 0 0 0 0 0 0 0 0 0 0 0 0 0 0 0 0 0 0 0 0 0 1 2 1 0 0 0 0 0 0
3 2 1 0 0 0 0 0 0 0 0 0 0 0 0 0 0 0 0 0 0 0 0 0 0 0 0 0 0 0 0 0 0 0 0 0 0 0 0 0 0 0 1
3 2 1 0 0 1 2 2 1 1 1 1 0 0 0 0 0 0 0 0 0 0 0 0 0 0 0 0 0 0 0 0 0 0 0 0 1 0 0 0 0 0 1
5 4 2 1 1 3 4 3 1 1 2 2 1 1 0 0 1 1 0 0 0 0 0 0 0 0 0 0 0 0 0 0 0 0 0 1 2 1 1 2 1 0 1
11 9 6 3 3 5 6 4 1 1 3 4 3 1 0 0 1 1 1 0 0 0 0 0 0 0 0 0 0 0 0 0 0 0 0 0 1 1 2 3 2 0 0
16 16 12 6 5 8 8 5 3 1 2 3 3 1 0 1 1 2 1 0 0 0 0 0 0 0 0 0 0 0 0 0 0 0 0 0 0 1 3 4 2 0 0
22 24 21 13 10 12 11 8 6 5 3 3 3 1 1 2 3 2 1 0 0 0 0 0 0 1 1 0 0 0 0 0 0 0 0 0 0 1 3 4 3 1 1
28 30 29 23 20 19 16 12 10 8 6 4 3 2 2 2 3 2 1 1 1 0 0 0 0 1 2 1 1 0 0 0 0 0 0 0 1 1 2 3 4 3 3
36 36 34 30 28 26 20 14 11 10 7 5 4 3 1 1 3 3 2 1 1 1 1 1 1 1 2 3 3 1 0 0 0 0 0 1 2 2 2 3 5 6 6
41 40 37 34 32 30 23 14 11 9 7 6 6 3 1 1 2 3 2 1 1 1 2 3 3 2 2 3 3 1 0 0 1 0 1 2 2 3 3 4 5 6 6
40 40 38 38 37 34 27 18 13 10 7 7 8 5 1 1 1 2 2 2 2 3 3 4 4 5 4 3 3 2 1 0 0 0 1 2 3 3 3 3 4 4 5
40 40 40 42 43 41 34 27 20 14 9 8 9 6 2 1 1 1 1 2 3 3 3 3 4 5 4 3 3 4 3 2 1 1 1 2 2 2 3 3 2 3 4
39 40 43 45 48 47 42 37 30 20 13 10 10 9 6 4 3 2 2 3 3 3 3 3 3 4 3 3 3 4 6 6 5 4 3 2 2 2 2 3 3 3 4
36 39 44 48 50 50 47 43 36 26 19 15 13 12 10 7 6 5 4 4 4 3 3 3 3 3 3 3 3 5 7 8 7 7 5 3 3 3 3 3 3 3 3

GEFSSE_con_prob3kmehi_198.txt.gz
EHI
7 5 3 1 0 0 0 0 0 0 0 0 0 0 1 1 1 0 1 2 2 2 3 2 1 1 2 2 1 3 4 4 4 3 1 0 0 0 0 0 0 0 0
8 5 2 1 0 0 0 0 0 0 0 0 0 0 1 1 0 0 1 1 1 1 2 1 0 1 1 1 1 3 4 4 4 3 1 0 0 0 0 0 0 0 0
6 4 1 1 0 0 0 0 0 0 0 0 1 1 1 1 0 1 1 1 0 0 0 0 0 0 0 0 1 2 3 3 3 1 1 0 0 0 0 0 0 0 0
7 5 2 1 0 0 0 0 0 0 0 0 1 1 1 1 1 1 2 1 0 0 0 0 0 0 0 0 0 1 1 1 1 1 0 0 0 0 0 0 0 0 0
13 10 6 3 1 0 0 0 0 0 0 0 1 1 1 1 1 1 1 1 0 0 0 1 2 1 0 0 0 0 0 0 1 1 1 0 0 0 0 0 0 0 0
14 12 8 4 1 0 0 0 0 0 0 0 0 0 0 1 1 0 0 0 0 0 1 2 3 2 0 0 0 0 0 0 1 1 1 0 0 0 0 0 0 0 0
12 10 7 3 1 0 0 0 0 0 0 0 0 0 0 0 0 0 0 0 0 1 2 2 2 1 0 0 0 0 0 1 2 2 2 1 1 1 1 0 0 0 0
11 8 5 3 2 1 0 0 0 0 0 0 0 0 0 0 0 0 0 0 0 1 1 1 1 0 0 1 1 0 0 2 3 3 3 2 2 3 1 1 0 0 0
9 7 5 4 4 3 2 2 1 0 1 1 0 0 0 0 0 0 0 0 0 0 0 0 0 0 0 1 1 1 2 4 4 3 2 2 3 4 2 1 0 0 0
6 5 5 5 5 5 4 4 4 3 3 2 2 1 1 1 1 1 1 1 1 0 0 0 0 0 1 1 2 3 4 5 4 1 2 5 7 6 4 1 0 0 0
4 4 4 4 5 5 6 7 8 6 5 5 4 3 3 3 3 3 3 3 2 1 1 1 1 1 2 3 5 5 6 5 3 2 5 10 12 11 7 3 0 0 0
3 3 2 2 3 4 6 8 8 7 6 5 5 5 5 5 4 4 4 4 4 3 3 3 3 3 3 3 5 5 5 5 3 2 7 14 16 13 10 6 2 0 0
4 4 4 3 5 6 7 6 6 6 6 5 4 4 4 4 3 3 4 5 5 5 4 4 3 2 1 1 2 2 3 3 2 3 8 15 17 14 12 9 5 1 0
6 7 8 8 10 12 12 8 6 5 5 5 5 3 3 3 2 2 4 4 4 4 5 4 4 3 1 0 0 0 1 1 1 3 8 14 15 14 13 11 6 3 2
11 12 13 13 14 16 15 12 9 7 6 6 5 3 3 3 1 1 3 4 4 4 5 5 5 5 4 3 2 1 2 3 2 3 8 12 14 15 15 13 9 5 4
19 20 18 15 15 15 13 12 10 9 8 7 6 5 3 2 1 1 3 4 5 6 5 5 6 7 7 6 5 4 4 4 3 4 7 10 14 17 17 16 12 8 6
32 32 26 18 15 14 10 9 8 7 8 9 9 8 6 4 4 4 4 4 5 7 7 7 7 7 7 6 5 4 4 5 6 7 8 10 13 17 18 17 16 13 11
44 43 35 25 22 19 14 10 8 7 9 10 10 11 11 8 8 9 7 5 6 9 8 6 5 4 3 3 2 3 5 8 9 10 11 12 15 19 20 20 19 18 16
57 52 43 36 33 28 21 15 12 10 12 13 13 15 15 10 9 11 11 10 10 11 8 5 3 3 2 2 1 2 6 11 12 12 12 13 17 22 24 23 22 21 19
68 61 51 45 41 34 27 23 19 17 17 18 21 24 21 14 11 12 13 14 14 11 8 6 5 3 3 3 2 3 6 10 13 13 11 10 14 20 23 24 24 22 20
74 70 59 51 45 39 33 31 29 25 23 24 28 31 27 19 14 13 12 13 13 10 8 7 7 6 5 4 3 2 3 6 9 11 11 11 12 16 20 24 28 27 24
81 76 66 57 51 44 38 37 35 30 26 27 33 35 29 20 14 11 11 10 9 11 11 11 10 9 8 6 3 2 2 3 5 7 10 13 15 18 20 24 30 32 30
84 80 72 67 60 50 43 39 38 36 31 32 38 40 32 22 15 12 12 11 10 12 14 14 13 12 11 8 7 6 5 4 4 5 7 11 16 19 19 19 23 29 32
83 81 81 78 70 58 48 42 42 43 39 39 44 45 39 30 22 19 19 19 15 12 12 12 12 12 11 9 8 9 8 6 5 5 5 6 10 15 15 13 14 21 25
80 83 85 83 77 67 55 47 45 45 43 43 47 48 45 41 33 28 28 27 21 15 13 13 11 11 10 8 7 7 7 7 7 8 6 5 7 9 11 12 13 17 21
80 83 84 83 80 72 60 50 47 45 42 44 49 51 48 46 42 35 32 31 24 18 17 16 13 11 10 8 6 5 4 6 8 9 8 7 7 7 10 13 15 18 23